Simultaneous Nadir Overpasses (SNOs) Predictions

Prediction of SNOs between FY3D and AQUA Satellite Orbit:

Table of predicted SNOs for the next 14.0 days since TLE Epoch: 11/21/2020
Index Date (FY3D) Time (FY3D) Lat,Lon (FY3D) SZA (FY3D ) Date (AQUA) Time (AQUA) Lat,Lon (AQUA) SZA (AQUA ) Distance(km) Time Diff (sec)
1 11/23/2020 15:08:51 -47.17, -14.50 39.41 11/23/2020 15:09:11 -47.18, -14.54 39.44 3.04 20
2 11/23/2020 15:56:43 56.86, 157.60 133.33 11/23/2020 15:55:51 56.86, 157.58 133.44 0.98 52
3 11/26/2020 07:25:05 -47.62, 101.61 39.20 11/26/2020 07:25:33 -47.64, 101.52 39.23 7.29 28
4 11/26/2020 08:13:37 55.03, -87.54 135.32 11/26/2020 08:12:52 55.03, -87.53 135.40 0.41 45
5 11/28/2020 23:41:18 -48.12,-142.26 39.06 11/28/2020 23:41:54 -48.16,-142.40 39.09 11.47 36
6 11/29/2020 00:30:27 53.42, 27.53 137.07 11/29/2020 00:29:49 53.42, 27.54 137.14 1.11 38
7 12/01/2020 15:57:32 -48.56, -26.15 38.90 12/01/2020 15:58:16 -48.61, -26.35 38.92 15.34 44
8 12/01/2020 16:47:15 51.91, 142.70 138.67 12/01/2020 16:46:44 51.92, 142.72 138.73 1.18 31
9 12/04/2020 08:13:45 -49.00, 89.96 38.77 12/04/2020 08:14:37 -49.04, 89.71 38.78 19.12 52
10 12/04/2020 09:03:58 50.63,-101.98 140.06 12/04/2020 09:03:34 50.64,-101.97 140.11 0.65 24
